Time,TemperatureF,DewpointF,PressureIn,WindDirection,WindDirectionDegrees,WindSpeedMPH,WindSpeedGustMPH,Humidity,HourlyPrecipIn,Conditions,Clouds,dailyrainin,SoftwareType,DateUTC
2013-05-15 00:04:00,51.6,45.0,30.12,ENE,65,0.0,1.0,77,0.00,,,0.00,weatherlink.com 1.10,2013-05-15 07:04:00,
2013-05-15 00:19:00,51.5,45.0,30.12,ENE,65,0.0,1.0,79,0.00,,,0.00,weatherlink.com 1.10,2013-05-15 07:19:00,
2013-05-15 00:34:00,51.5,45.0,30.12,ENE,65,0.0,1.0,78,0.00,,,0.00,weatherlink.com 1.10,2013-05-15 07:34:00,
2013-05-15 00:49:00,51.6,46.0,30.11,ENE,65,0.0,2.0,80,0.00,,,0.00,weatherlink.com 1.10,2013-05-15 07:49:00,
2013-05-15 01:04:00,51.5,45.0,30.11,ENE,65,0.0,1.0,79,0.00,,,0.00,weatherlink.com 1.10,2013-05-15 08:04:00,
2013-05-15 01:19:00,51.4,46.0,30.11,ENE,65,0.0,0.0,82,0.00,,,0.00,weatherlink.com 1.10,2013-05-15 08:19:00,
2013-05-15 01:34:00,51.4,46.0,30.11,ENE,65,0.0,0.0,83,0.00,,,0.00,weatherlink.com 1.10,2013-05-15 08:34:00,
2013-05-15 01:49:00,51.1,45.0,30.10,ENE,65,0.0,0.0,81,0.00,,,0.00,weatherlink.com 1.10,2013-05-15 08:49:00,
2013-05-15 02:04:00,50.8,46.0,30.11,ENE,65,0.0,0.0,82,0.00,,,0.00,weatherlink.com 1.10,2013-05-15 09:04:00,
2013-05-15 02:19:00,50.5,45.0,30.10,ENE,65,0.0,0.0,82,0.00,,,0.00,weatherlink.com 1.10,2013-05-15 09:19:00,
2013-05-15 02:34:00,50.1,45.0,30.10,ENE,65,0.0,1.0,83,0.00,,,0.00,weatherlink.com 1.10,2013-05-15 09:34:00,
2013-05-15 02:49:00,49.8,45.0,30.10,ENE,65,0.0,0.0,84,0.00,,,0.00,weatherlink.com 1.10,2013-05-15 09:49:00,
2013-05-15 03:04:00,49.6,45.0,30.10,ENE,65,2.0,3.0,83,0.00,,,0.00,weatherlink.com 1.10,2013-05-15 10:04:00,
2013-05-15 03:19:00,49.7,45.0,30.10,ENE,65,3.0,5.0,83,0.00,,,0.00,weatherlink.com 1.10,2013-05-15 10:19:00,
2013-05-15 03:34:00,49.6,45.0,30.09,ENE,65,1.0,5.0,84,0.00,,,0.00,weatherlink.com 1.10,2013-05-15 10:34:00,
2013-05-15 03:49:00,49.5,45.0,30.10,ENE,65,0.0,3.0,84,0.00,,,0.00,weatherlink.com 1.10,2013-05-15 10:49:00,
2013-05-15 04:04:00,49.4,45.0,30.09,ENE,65,0.0,0.0,84,0.00,,,0.00,weatherlink.com 1.10,2013-05-15 11:04:00,
2013-05-15 04:34:00,48.8,45.0,30.09,ENE,65,0.0,1.0,85,0.00,,,0.00,weatherlink.com 1.10,2013-05-15 11:34:00,
2013-05-15 04:49:00,48.8,45.0,30.08,ENE,65,2.0,2.0,85,0.00,,,0.00,weatherlink.com 1.10,2013-05-15 11:49:00,
2013-05-15 05:04:00,49.3,45.0,30.08,ENE,65,0.0,2.0,85,0.00,,,0.00,weatherlink.com 1.10,2013-05-15 12:04:00,
2013-05-15 05:19:00,49.4,45.0,30.09,ENE,65,0.0,0.0,86,0.00,,,0.00,weatherlink.com 1.10,2013-05-15 12:19:00,
2013-05-15 05:34:00,49.3,45.0,30.09,ENE,65,0.0,0.0,86,0.00,,,0.00,weatherlink.com 1.10,2013-05-15 12:34:00,
2013-05-15 05:49:00,49.1,46.0,30.09,ENE,65,0.0,0.0,89,0.00,,,0.00,weatherlink.com 1.10,2013-05-15 12:49:00,
2013-05-15 06:04:00,48.8,45.0,30.09,ENE,65,0.0,0.0,88,0.00,,,0.00,weatherlink.com 1.10,2013-05-15 13:04:00,
2013-05-15 06:19:00,48.7,46.0,30.09,ENE,65,0.0,1.0,89,0.00,,,0.00,weatherlink.com 1.10,2013-05-15 13:19:00,
2013-05-15 06:34:00,48.9,46.0,30.09,ENE,65,0.0,1.0,90,0.00,,,0.00,weatherlink.com 1.10,2013-05-15 13:34:00,
2013-05-15 06:49:00,49.0,47.0,30.09,ENE,65,0.0,0.0,91,0.00,,,0.00,weatherlink.com 1.10,2013-05-15 13:49:00,
2013-05-15 07:04:00,49.2,47.0,30.09,ENE,65,0.0,0.0,92,0.00,,,0.00,weatherlink.com 1.10,2013-05-15 14:04:00,
2013-05-15 07:19:00,49.4,47.0,30.09,ENE,65,0.0,0.0,92,0.00,,,0.00,weatherlink.com 1.10,2013-05-15 14:19:00,
2013-05-15 07:34:00,49.6,47.0,30.09,ENE,65,0.0,0.0,92,0.00,,,0.00,weatherlink.com 1.10,2013-05-15 14:34:00,
2013-05-15 07:49:00,49.8,48.0,30.09,ENE,65,0.0,0.0,93,0.00,,,0.00,weatherlink.com 1.10,2013-05-15 14:49:00,
2013-05-15 08:04:00,50.1,48.0,30.09,ENE,65,0.0,0.0,93,0.00,,,0.00,weatherlink.com 1.10,2013-05-15 15:04:00,
2013-05-15 08:19:00,50.3,48.0,30.09,ENE,65,0.0,1.0,90,0.00,,,0.00,weatherlink.com 1.10,2013-05-15 15:19:00,
2013-05-15 09:34:00,51.8,48.0,30.08,NNW,340,0.0,1.0,87,0.00,,,0.00,weatherlink.com 1.10,2013-05-15 16:34:00,
2013-05-15 09:49:00,52.2,49.0,30.08,NW,326,0.0,3.0,88,0.00,,,0.00,weatherlink.com 1.10,2013-05-15 16:49:00,
2013-05-15 10:34:00,53.0,49.0,30.08,NW,318,1.0,2.0,85,0.00,,,0.00,weatherlink.com 1.10,2013-05-15 17:34:00,
2013-05-15 11:04:00,53.7,49.0,30.08,NW,318,0.0,1.0,84,0.00,,,0.00,weatherlink.com 1.10,2013-05-15 18:04:00,
2013-05-15 11:19:00,53.8,48.0,30.07,NW,311,2.0,3.0,82,0.00,,,0.00,weatherlink.com 1.10,2013-05-15 18:19:00,
2013-05-15 11:34:00,54.2,49.0,30.07,NW,308,3.0,3.0,81,0.00,,,0.00,weatherlink.com 1.10,2013-05-15 18:34:00,
2013-05-15 11:50:00,53.7,47.0,30.07,WNW,300,1.0,3.0,78,0.00,,,0.00,weatherlink.com 1.10,2013-05-15 18:50:00,
2013-05-15 12:05:00,54.1,47.0,30.07,WNW,300,1.0,3.0,77,0.00,,,0.00,weatherlink.com 1.10,2013-05-15 19:05:00,
2013-05-15 12:20:00,55.8,48.0,30.06,WNW,300,0.0,2.0,76,0.00,,,0.00,weatherlink.com 1.10,2013-05-15 19:20:00,
2013-05-15 12:35:00,56.9,48.0,30.06,WNW,300,1.0,3.0,73,0.00,,,0.00,weatherlink.com 1.10,2013-05-15 19:35:00,
2013-05-15 12:50:00,57.1,47.0,30.05,WNW,300,1.0,2.0,70,0.00,,,0.00,weatherlink.com 1.10,2013-05-15 19:50:00,
2013-05-15 13:05:00,56.6,46.0,30.05,WNW,300,3.0,3.0,67,0.00,,,0.00,weatherlink.com 1.10,2013-05-15 20:05:00,
2013-05-15 13:20:00,57.9,47.0,30.05,WNW,287,1.0,4.0,68,0.00,,,0.00,weatherlink.com 1.10,2013-05-15 20:20:00,
2013-05-15 13:35:00,58.9,47.0,30.04,WNW,287,0.0,3.0,66,0.00,,,0.00,weatherlink.com 1.10,2013-05-15 20:35:00,
2013-05-15 14:05:00,58.7,48.0,30.04,WNW,300,2.0,4.0,67,0.00,,,0.00,weatherlink.com 1.10,2013-05-15 21:05:00,
2013-05-15 14:20:00,58.9,48.0,30.03,WNW,300,3.0,3.0,67,0.00,,,0.00,weatherlink.com 1.10,2013-05-15 21:20:00,
2013-05-15 14:35:00,60.3,48.0,30.03,WNW,300,0.0,3.0,64,0.00,,,0.00,weatherlink.com 1.10,2013-05-15 21:35:00,
2013-05-15 15:35:00,58.1,47.0,30.02,WNW,300,2.0,2.0,67,0.00,,,0.00,weatherlink.com 1.10,2013-05-15 22:35:00,
2013-05-15 16:05:00,57.5,48.0,30.02,WNW,300,0.0,2.0,70,0.00,,,0.00,weatherlink.com 1.10,2013-05-15 23:05:00,
2013-05-15 16:50:00,56.9,49.0,30.01,WNW,300,0.0,0.0,76,0.00,,,0.00,weatherlink.com 1.10,2013-05-15 23:50:00,
2013-05-15 17:05:00,57.5,51.0,30.01,WNW,300,0.0,0.0,78,0.00,,,0.00,weatherlink.com 1.10,2013-05-16 00:05:00,
2013-05-15 17:20:00,57.0,50.0,30.01,WNW,300,0.0,1.0,76,0.00,,,0.00,weatherlink.com 1.10,2013-05-16 00:20:00,
2013-05-15 17:35:00,56.6,51.0,30.01,WNW,300,0.0,0.0,80,0.00,,,0.00,weatherlink.com 1.10,2013-05-16 00:35:00,
2013-05-15 17:50:00,56.4,51.0,30.01,WNW,300,0.0,1.0,82,0.00,,,0.00,weatherlink.com 1.10,2013-05-16 00:50:00,
2013-05-15 18:05:00,56.2,52.0,30.01,WNW,300,0.0,1.0,85,0.00,,,0.00,weatherlink.com 1.10,2013-05-16 01:05:00,
2013-05-15 18:35:00,55.7,52.0,30.01,WNW,300,0.0,0.0,88,0.00,,,0.00,weatherlink.com 1.10,2013-05-16 01:35:00,
2013-05-15 19:05:00,54.6,52.0,30.01,WNW,300,0.0,0.0,89,0.00,,,0.00,weatherlink.com 1.10,2013-05-16 02:05:00,
2013-05-15 19:20:00,53.8,51.0,30.01,WNW,300,0.0,1.0,90,0.00,,,0.00,weatherlink.com 1.10,2013-05-16 02:20:00,
2013-05-15 19:35:00,52.6,50.0,30.01,NNW,335,1.0,2.0,92,0.00,,,0.00,weatherlink.com 1.10,2013-05-16 02:35:00,
2013-05-15 19:50:00,52.2,50.0,30.01,NNW,335,0.0,1.0,93,0.00,,,0.00,weatherlink.com 1.10,2013-05-16 02:50:00,
2013-05-15 20:20:00,51.7,50.0,30.01,NNW,335,1.0,2.0,95,0.00,,,0.00,weatherlink.com 1.10,2013-05-16 03:20:00,
2013-05-15 20:35:00,51.4,50.0,30.01,NNW,335,0.0,2.0,96,0.00,,,0.00,weatherlink.com 1.10,2013-05-16 03:35:00,
2013-05-15 20:50:00,51.4,50.0,30.01,NNW,335,0.0,1.0,96,0.00,,,0.00,weatherlink.com 1.10,2013-05-16 03:50:00,
2013-05-15 21:05:00,51.4,51.0,30.01,NNW,340,0.0,1.0,97,0.00,,,0.00,weatherlink.com 1.10,2013-05-16 04:05:00,
2013-05-15 21:20:00,51.3,50.0,30.02,North,359,0.0,2.0,96,0.00,,,0.00,weatherlink.com 1.10,2013-05-16 04:20:00,
2013-05-15 21:35:00,50.9,50.0,30.02,SSE,155,0.0,1.0,96,0.00,,,0.00,weatherlink.com 1.10,2013-05-16 04:35:00,
2013-05-15 21:51:00,50.4,49.0,30.02,NNE,25,1.0,1.0,96,0.00,,,0.00,weatherlink.com 1.10,2013-05-16 04:51:00,
2013-05-15 22:06:00,49.9,49.0,30.02,NNE,26,0.0,2.0,96,0.00,,,0.00,weatherlink.com 1.10,2013-05-16 05:06:00,
2013-05-15 22:21:00,49.8,49.0,30.02,NNE,26,0.0,1.0,96,0.00,,,0.00,weatherlink.com 1.10,2013-05-16 05:21:00,
2013-05-15 22:36:00,49.8,49.0,30.02,NNE,26,0.0,1.0,97,0.00,,,0.00,weatherlink.com 1.10,2013-05-16 05:36:00,
2013-05-15 22:51:00,49.8,49.0,30.02,NNE,26,0.0,1.0,97,0.00,,,0.00,weatherlink.com 1.10,2013-05-16 05:51:00,
2013-05-15 23:06:00,49.8,49.0,30.01,NNE,26,0.0,0.0,97,0.00,,,0.00,weatherlink.com 1.10,2013-05-16 06:06:00,
2013-05-15 23:21:00,49.9,49.0,30.01,NNE,26,0.0,0.0,97,0.00,,,0.00,weatherlink.com 1.10,2013-05-16 06:21:00,
2013-05-15 23:36:00,50.0,50.0,30.01,NNE,26,0.0,0.0,98,0.00,,,0.00,weatherlink.com 1.10,2013-05-16 06:36:00,
2013-05-15 23:51:00,50.1,49.0,30.01,NNE,26,0.0,0.0,97,0.00,,,0.00,weatherlink.com 1.10,2013-05-16 06:51:00,